Regional Weather Roundup
Issued by NWS Kansas City/Pleasant Hill, MO

Home | Current Version | Previous Version | Graphics & Text | Print | Product List | Glossary Off
Versions: 1 2 3 4 5 6 7 8 9 10 11 12 13 14 15 16 17 18 19 20 21 22 23 24 25 26 27 28 29 30 31 32 33 34 35 36 37 38 39 40 41 42 43 44 45 46 47 48 49 50

480
ASUS43 KEAX 301410
RWREAX

WEATHER ROUNDUP FOR EASTERN KANSAS AND NORTHWEST MISSOURI
NATIONAL WEATHER SERVICE KANSAS CITY/PLEASANT HILL MO
900 AM CDT SAT APR 30 2016

KSZ040-057-103>105-MOZ028-029-037-043-301500-
...KANSAS CITY METROPOLITAN AREA...

CITY           SKY/WX    TMP DP  RH WIND       PRES   REMARKS
K.C. INTL      CLOUDY    58  56  93 E8        29.64F
K.C. DOWNTOWN  CLOUDY    61  59  93 NE3       29.64F
LEES SUMMIT    CLOUDY    60  59  96 SE8       29.65F
OLATHE - IXD   CLOUDY    61  59  93 S9        29.65S
OLATHE - OJC   CLOUDY    60  59  96 S7        29.65S
LAWRENCE       CLOUDY    61  59  93 SW5       29.63F

$$

MOZ001>008-011>017-020>025-030>033-038>040-044>046-053-054-301500-
...NORTHERN AND CENTRAL MISSOURI...

CITY           SKY/WX    TMP DP  RH WIND       PRES   REMARKS
ST. JOSEPH     CLOUDY    54  52  93 E13G21    29.65F
MOSBY          DRIZZLE   57  57 100 NE3       29.65F
WARRENSBURG    CLOUDY    61  59  94 SE8       29.65F
WHITEMAN AFB   CLOUDY    60  60 100 S7        29.64F
CLINTON        CLOUDY    63  61  94 S10       29.66F
SEDALIA        CLOUDY    62  60  93 SE12      29.67F
WARSAW         NOT AVBL
CHILLICOTHE      N/A     54  53  97 VRB6      29.71F
KIRKSVILLE     LGT RAIN  50  48  93 E13       29.74F FOG

$$

MOZ041-047>049-056>058-063>065-088>090-097-301500-
...EASTERN AND SOUTHERN MISSOURI...

CITY           SKY/WX    TMP DP  RH WIND       PRES   REMARKS
ST. LOUIS INTL CLOUDY    61  58  90 SE5       29.79R
SPIRIT OF STL  CLOUDY    61  59  93 E3        29.77R
COLUMBIA       CLOUDY    59  58  96 SE10      29.70F
JEFFERSON CITY CLOUDY    60  58  92 E10       29.69F
ROLLA          LGT RAIN  61  59  93 SE10      29.71F
OSAGE BEACH    CLOUDY    61  52  72 CALM      29.70S
SPRINGFIELD    CLOUDY    64  60  87 S13       29.71R
BRANSON        CLOUDY    64  61  88 S6        29.75R
JOPLIN         CLOUDY    65  61  87 SW12G21   29.70R
WEST PLAINS    CLOUDY    63  59  87 S12       29.76R

$$

IAZ060-094-KSZ022-034>040-054-083-096-NEZ052-066-093-301500-
...KANSAS...SOUTHEAST NEBRASKA AND IOWA...

CITY           SKY/WX    TMP DP  RH WIND       PRES   REMARKS
TOPEKA         MOSUNNY   59  56  89 SW8       29.63F
MANHATTAN      CLOUDY    53  49  86 W9        29.67R FOG
EMPORIA        CLOUDY    53  50  89 W12G17    29.68R
CHANUTE        PTSUNNY   60  54  80 SW12      29.70R
WICHITA        PTSUNNY   50  45  83 W15       29.74S
OMAHA          LGT RAIN  47  44  90 CALM      29.75R FOG
LINCOLN        CLOUDY    46  44  93 NE10      29.71F FOG
FALLS CITY     CLOUDY    52  50  93 E10       29.65F
LAMONI         LGT RAIN  47  46  97 E9        29.72F FOG
DES MOINES     RAIN      46  43  89 E14G23    29.79F FOG

$$





USA.gov is the U.S. government's official web portal to all federal, state and local government web resources and services.